STARLINK-3083, 49158

Orbit data source: Space-Track

STARLINK-3083, 49158 is a payload satellite owned by SpaceX/Seattle (US) in LEO that was launched on Tue, 14 Sep 2021 UTC via an FALCON 9 launch vehicle from the Air Force Western Test Range (AFWTR). Payload-class satellites include a variety of spacecraft equipped with specific instruments for various scientific and technological missions. These include communications satellites like Starlink; space stations such as the ISS; scientific satellites like the Hubble; Earth observation satellites from companies like Planet Labs, Umbra, and HawkEye 360; GPS; miniature CubeSats for education and research; and military/defense satellites.

Loading next visibility...
Identifier
49158, 2021-082AE
Orbit
LEO
Last TLE update
20 hours ago
Origin
Manufacturer
SpaceX/Seattle
Mission
Partially operational Commercial Communications
Bus & Motor
STARLINK, Unknown motor
Mass
297 kg wet, ~275 kg dry
Launch date (UTC)
2021-09-14 (4 years ago)
Launch vehicle
FALCON 9
Launch site
Air Force Western Test Range (AFWTR)
Object type
Payload
Rocket body
Debris
Shape & HBR
Box + 1 Pan, 8.86 m
Radar Cross Section
13.562 m², Large (>1 m²)

Expand to show TLE details & history

TLE from 20 hours ago
0 STARLINK-3083
1 49158U 21082AE  25128.55023988  .00056714  00000-0  17546-2 0  9996
2 49158  69.9827 283.0696 0005150 248.0902 111.9728 15.33180175202872
Epoch: 2025-05-08T13:12Z
Definitive object data (Epoch: 2025-05-08T13:12:20.725Z)
Latitude
Longitude
-141.63588°
Altitude
470.112 km
Speed
7.631 km/s
True Right ascension
18h 52m 16s
True Declination
0° 00' 00"
Sunlit
Object was in full shadow at TLE epoch
Visualization TLE readout
Latitude
-48.1414°
Longitude
60.02067°
Altitude
480.703 km
Speed
7.626 km/s
Apparent Right ascension
06h 40m 53s
Apparent Declination
-46° 30' 29"
Sunlit
Object is in daylight
Visualization observer readout
Local Sidereal Time
17:09:32
Azimuth
240.781° WSW
Elevation
-72.176°
Doppler factor
1
Orbital elements
Apogee altitude
467.773 km
Perigee altitude
460.726 km
Semi-major axis
6,842.387 km
Eccentricity
0.000515
Inclination
69.9827°
RAAN
283.0696°
Arg. of periapsis
248.0902°
True anomaly
112.02751°
Mean anomaly
111.9728°
Eccentric anomaly
112.00016°
Mean motion
3.8347 °/min
BSTAR
0.0017546
Orbital period
93.88 mins
Loading maneuver chart data...
Loading SW <> Apogee altitude chart data...
Loading historical data...
Loading historical data...
Loading historical data...
Loading historical data...
Loading historical data...
Loading historical data...
Loading historical data...

STARLINK-3083 Visibility forecast

Observer location: undefined°, undefined°

Span
Click to sort rows by Start time (UTC) header in descending order
Start Az.
Max El. time (UTC)
Max El. Az.
Max El.
End time (UTC)
End Az.
6 mins2025-05-09 11:15:16.963Z178.591° S2025-05-09 11:18:16.963Z112.718° SE32.931°2025-05-09 11:21:16.963Z41.8° NE
6 mins2025-05-09 21:04:16.963Z343.68° N2025-05-09 21:07:16.963Z113.922° SE40.263°2025-05-09 21:10:16.963Z148.37° SSE
|